QPF
0.01 0.01 0.01 0.01 0.01 0.01 0.01 0.01 0.01 0.02 0.02 0.02 0.02 0.01 0.02 0.02 0.08 0.02 0.03 0.03 0.03 0.02 0.02 0.06 0.02 0.03 0.03 0.03 0.01 0.02 0.02 0.02 0.02 0.01 0.02 0.02 0.04 0.06 0.11 0.24 0.35 0.19
0.01 0.00 0.00 0.01 0.01 0.01 0.01 0.01 0.01 0.01 0.01 0.02 0.03 0.03 0.02 0.08 0.18 0.16 0.11 0.07 0.09 0.06 0.13 0.21 0.10 0.05 0.05 0.05 0.04 0.03 0.02 0.03 0.10 0.02 0.02 0.02 0.01 0.01 0.01 0.04 0.20 0.22
0.00 0.00 0.01 0.01 0.01 0.00 0.01 0.01 0.01 0.02 0.03 0.03 0.03 0.02 0.03 0.03 0.12 0.03 0.16 0.08 0.16 0.14 0.12 0.09 0.11 0.03 0.04 0.07 0.04 0.03 0.07 0.02 0.01 0.01 0.00 0.01 0.03 0.03 0.04 0.03 0.12 0.18
0.00 0.00 0.00 0.01 0.01 0.01 0.01 0.01 0.03 0.03 0.01 0.03 0.03 0.02 0.02 0.01 0.09 0.32 0.09 0.15 0.14 0.22 0.15 0.07 0.15 0.04 0.07 0.08 0.07 0.01 0.04 0.04 0.02 0.02 0.01 0.05 0.10 0.04 0.05 0.02 0.06 0.12
0.00 0.00 0.00 0.00 0.00 0.01 0.01 0.01 0.01 0.01 0.01 0.03 0.04 0.03 0.10 0.03 0.07 0.16 0.31 0.03 0.14 0.15 0.31 0.15 0.11 0.06 0.19 0.04 0.07 0.21 0.15 0.02 0.01 0.05 0.04 0.05 0.05 0.02 0.05 0.05 0.07 0.11
0.00 0.00 0.00 0.00 0.00 0.01 0.01 0.01 0.01 0.01 0.02 0.02 0.02 0.02 0.08 0.09 0.06 0.08 0.29 0.15 0.42 0.47 0.44 0.50 0.39 0.07 0.31 0.31 0.11 0.16 0.13 0.02 0.03 0.02 0.01 0.04 0.01 0.01 0.01 0.04 0.02 0.03
0.00 0.00 0.00 0.00 0.00 0.00 0.00 0.01 0.01 0.01 0.02 0.02 0.01 0.02 0.05 0.02 0.10 0.07 0.09 0.25 0.40 0.24 0.27 0.44 0.23 0.17 0.20 0.16 0.22 0.29 0.15 0.05 0.04 0.01 0.01 0.01 0.01 0.02 0.02 0.02 0.02 0.04
0.00 -0.00 0.00 0.00 0.00 0.00 0.00 0.01 0.01 0.01 0.03 0.01 0.02 0.02 0.04 0.05 0.20 0.27 0.51 0.36 0.73 0.74 0.47 0.38 0.32 0.15 0.43 0.17 0.16 0.19 0.23 0.19 0.08 0.01 0.01 0.00 0.01 0.01 0.01 0.02 0.02 0.02
0.00 0.00 0.00 0.00 0.00 0.00 0.00 0.00 0.00 0.01 0.01 0.01 0.02 0.12 0.32 0.18 0.54 0.21 0.48 0.64 0.35 0.19 0.34 0.68 0.17 0.10 0.26 0.14 0.10 0.13 0.08 0.02 0.01 0.00 0.01 0.01 0.01 0.01 0.00 0.01 0.02 0.02
0.00 0.00 0.00 0.00 0.00 -0.00 0.00 0.00 0.00 0.01 0.01 0.02 0.02 0.03 0.04 0.09 0.30 0.45 0.49 0.37 0.60 0.42 1.03 0.28 0.29 0.18 0.06 0.06 0.06 0.10 0.20 0.26 0.01 0.03 0.01 0.01 0.01 0.00 0.01 0.00 0.02 0.02
0.00 0.00 0.00 0.00 0.00 0.00 -0.00 0.00 0.00 0.01 0.01 0.01 0.03 0.10 0.18 0.16 0.22 0.14 0.20 0.38 0.37 0.34 0.25 0.16 0.20 0.13 0.16 0.08 0.06 0.10 0.14 0.10 0.06 0.01 0.01 0.00 0.01 0.00 0.03 0.01 0.01 0.03
0.00 -0.00 0.00 0.00 0.00 0.00 0.00 0.00 0.00 0.01 0.02 0.02 0.03 0.04 0.05 0.10 0.11 0.23 0.31 0.25 0.18 0.18 0.23 0.17 0.10 0.16 0.15 0.13 0.11 0.23 0.16 0.09 0.12 0.08 0.00 0.00 0.00 0.00 0.01 0.02 0.02 0.01
0.00 0.00 0.00 0.00 0.00 0.00 0.00 0.00 0.00 0.01 0.01 0.01 0.03 0.05 0.09 0.15 0.21 0.19 0.28 0.23 0.29 0.24 0.16 0.13 0.25 0.50 0.53 0.48 0.33 0.57 0.33 0.29 0.24 0.13 0.03 0.00 0.00 0.00 0.00 0.00 0.02 0.01
0.00 0.00 0.00 0.00 0.00 -0.00 0.00 0.00 0.00 0.00 0.01 0.02 0.03 0.17 0.30 0.35 0.40 0.51 0.47 0.20 0.43 0.35 0.42 0.28 0.39 0.41 0.45 0.71 0.58 0.35 0.26 0.18 0.23 0.13 0.02 0.00 0.00 0.00 0.01 0.02 0.03 0.02
0.00 0.00 0.00 -0.00 -0.00 0.00 -0.00 0.00 0.00 0.00 0.00 0.02 0.05 0.08 0.17 0.27 0.31 0.48 0.47 0.38 0.44 0.31 0.18 0.22 0.32 0.23 0.31 0.28 0.36 0.16 0.37 0.48 0.21 0.04 0.00 0.01 0.01 0.01 0.03 0.01 0.04 0.02
0.00 -0.00 -0.00 0.00 0.00 0.00 0.00 0.00 0.00 0.00 0.00 0.00 0.03 0.08 0.11 0.18 0.20 0.25 0.25 0.27 0.32 0.40 0.33 0.34 0.27 0.31 0.40 0.35 0.50 0.41 0.45 0.41 0.21 0.16 0.02 0.01 0.01 0.01 0.01 0.01 0.01 0.00
0.00 0.00 0.00 0.00 -0.00 0.00 0.00 0.00 0.00 0.00 0.00 0.00 0.01 0.03 0.10 0.16 0.19 0.19 0.20 0.18 0.33 0.71 0.71 0.64 0.46 0.45 0.08 0.31 0.22 0.24 0.27 0.31 0.21 0.27 0.22 0.10 0.03 0.00 0.01 0.00 0.01 0.00
0.00 0.00 0.00 -0.00 0.00 0.00 0.00 -0.00 -0.00 0.00 0.00 0.00 0.00 0.01 0.04 0.08 0.10 0.11 0.13 0.16 0.15 0.14 0.27 0.37 0.40 0.47 0.39 0.38 0.11 0.05 0.04 0.18 0.19 0.14 0.13 0.11 0.10 0.03 0.02 0.00 0.01 0.00
-0.00 0.00 0.00 0.00 0.00 0.00 -0.00 0.00 0.00 -0.00 0.00 0.00 0.00 0.00 0.01 0.03 0.06 0.09 0.11 0.10 0.15 0.13 0.13 0.23 0.23 0.18 0.19 0.15 0.06 0.05 0.03 0.02 0.06 0.15 0.22 0.09 0.04 0.13 0.02 0.00 0.01 0.01
0.00 0.00 0.00 -0.00 0.00 0.00 0.00 -0.00 0.00 0.00 0.00 0.00 0.00 0.00 0.00 0.01 0.02 0.04 0.06 0.09 0.12 0.10 0.10 0.04 0.03 0.16 0.05 0.07 0.05 0.02 0.02 0.01 0.00 0.08 0.18 0.15 0.10 0.10 0.11 0.05 0.04 0.01
0.00 0.00 -0.00 0.00 0.00 0.00 0.00 0.00 0.00 0.00 0.00 0.00 0.00 0.00 0.00 0.00 0.00 0.02 0.03 0.04 0.06 0.07 0.08 0.09 0.07 0.04 0.03 0.14 0.17 0.06 0.04 0.02 0.01 0.01 0.08 0.17 0.16 0.20 0.29 0.18 0.13 0.07
0.00 -0.00 0.00 0.00 -0.00 0.00 0.00 0.00 0.00 0.00 0.00 0.00 0.00 0.00 0.00 0.01 0.01 0.01 0.02 0.03 0.03 0.04 0.04 0.05 0.05 0.03 0.04 0.05 0.13 0.04 0.01 0.04 0.01 0.00 0.05 0.10 0.22 0.21 0.40 0.22 0.21 0.29
-0.00 0.00 -0.00 0.00 0.00 -0.00 0.00 0.00 0.00 0.00 0.00 0.00 0.00 0.00 0.00 0.00 0.01 0.01 0.01 0.01 0.02 0.04 0.03 0.04 0.06 0.06 0.05 0.08 0.15 0.06 0.03 0.04 0.00 0.01 0.06 0.07 0.17 0.12 0.16 0.68 0.26 0.42
0.00 0.00 -0.00 -0.00 0.00 0.00 0.00 0.00 0.00 0.00 0.00 0.00 0.00 0.00 0.00 0.00 0.00 0.00 0.01 0.01 0.08 0.04 0.05 0.05 0.06 0.05 0.05 0.08 0.10 0.10 0.04 0.05 0.01 0.03 0.07 0.08 0.06 0.15 0.12 0.09 0.15 0.00
0.00 0.00 0.00 0.00 0.00 0.00 0.00 0.00 0.00 0.00 0.00 0.00 0.00 0.00 0.00 0.00 0.00 0.00 0.00 0.00 0.01 0.01 0.09 0.09 0.09 0.09 0.07 0.06 0.07 0.05 0.22 0.11 0.03 0.03 0.07 0.06 0.04 0.07 0.14 0.28 0.00 0.00
0.00 0.00 0.00 -0.00 0.00 0.00 0.00 0.00 0.00 0.00 0.00 0.00 0.00 0.00 0.00 0.00 0.00 0.00 0.00 0.00 0.00 0.01 0.01 0.02 0.02 0.06 0.04 0.03 0.05 0.06 0.05 0.09 0.09 0.06 0.06 0.02 0.01 0.01 0.03 0.01 0.00 0.00
MSLP
1016.82 1016.54 1016.30 1015.98 1015.70 1015.38 1015.14 1015.06 1014.82 1014.62 1014.34 1014.06 1014.06 1013.82 1013.94 1013.58 1013.74 1013.30 1013.10 1013.10 1013.10 1013.10 1013.06 1013.14 1013.10 1013.22 1013.22 1013.34 1013.38 1013.46 1013.46 1013.66 1013.86 1014.02 1014.26 1014.62 1014.86 1015.38 1015.46 1015.58 1015.74 1015.94
1017.18 1016.94 1016.70 1016.34 1015.82 1015.42 1015.18 1014.98 1014.74 1014.58 1014.34 1014.10 1013.86 1013.74 1013.54 1013.38 1013.50 1013.46 1013.42 1013.34 1013.26 1013.18 1013.18 1013.26 1013.70 1013.34 1013.18 1013.42 1013.26 1013.42 1013.38 1013.38 1013.66 1013.38 1013.74 1014.10 1014.30 1014.62 1014.94 1015.18 1015.38 1015.70
1017.34 1017.14 1016.86 1016.66 1016.38 1015.90 1015.34 1014.90 1014.58 1014.34 1014.26 1013.98 1013.82 1013.62 1013.46 1013.38 1013.58 1013.62 1013.50 1013.46 1013.66 1013.86 1013.58 1013.38 1013.26 1013.06 1013.02 1012.98 1013.06 1013.34 1013.22 1013.14 1013.22 1013.14 1013.46 1013.82 1014.10 1014.30 1014.46 1014.86 1015.58 1015.34
1017.54 1017.22 1016.90 1016.66 1016.42 1016.18 1015.66 1015.10 1014.70 1014.22 1013.86 1013.78 1013.66 1013.46 1013.34 1013.38 1013.54 1013.86 1013.54 1013.30 1013.58 1013.62 1013.50 1013.18 1013.02 1012.86 1012.94 1012.82 1012.94 1012.74 1012.78 1012.66 1012.66 1012.82 1013.26 1013.58 1013.86 1014.10 1014.26 1014.30 1014.62 1015.06
1017.66 1017.30 1016.94 1016.74 1016.50 1016.30 1016.02 1015.54 1014.90 1014.38 1013.90 1013.58 1013.50 1013.38 1013.26 1013.34 1013.58 1013.74 1013.82 1013.46 1013.22 1013.18 1013.42 1013.18 1012.90 1012.82 1012.66 1012.54 1012.54 1012.94 1012.86 1012.54 1012.50 1012.66 1013.02 1013.34 1013.46 1013.74 1013.94 1014.18 1014.50 1014.86
1017.78 1017.46 1017.18 1016.94 1016.74 1016.46 1016.06 1015.58 1014.90 1014.34 1013.90 1013.54 1013.38 1013.26 1013.10 1013.02 1013.22 1013.38 1013.54 1013.50 1013.34 1013.06 1013.26 1013.38 1013.34 1013.06 1012.94 1012.82 1012.78 1012.86 1012.94 1012.54 1012.46 1012.42 1012.74 1012.98 1013.14 1013.30 1013.50 1013.74 1014.14 1014.46
1017.82 1017.54 1017.30 1017.06 1016.94 1016.66 1016.22 1015.62 1015.14 1014.62 1014.10 1013.70 1013.26 1013.14 1013.10 1013.18 1013.18 1013.26 1013.30 1013.42 1013.46 1013.18 1013.06 1013.10 1013.18 1013.02 1013.06 1012.86 1012.82 1013.02 1013.18 1012.18 1012.10 1012.22 1012.50 1012.70 1012.90 1013.10 1013.10 1013.42 1013.70 1013.74
1017.86 1017.62 1017.42 1017.22 1017.14 1016.82 1016.50 1016.10 1015.66 1015.10 1014.42 1013.82 1013.54 1013.18 1013.06 1013.18 1013.30 1013.26 1013.38 1013.66 1013.54 1013.46 1013.18 1012.82 1012.66 1012.78 1012.70 1012.74 1012.66 1012.86 1013.14 1012.78 1012.50 1012.06 1012.18 1012.34 1012.62 1012.78 1012.94 1013.02 1013.18 1013.26
1017.86 1017.70 1017.50 1017.38 1017.22 1016.98 1016.74 1016.42 1015.90 1015.42 1014.74 1014.14 1013.62 1013.30 1013.26 1013.26 1013.22 1013.14 1013.14 1013.10 1013.22 1013.26 1013.30 1013.14 1013.10 1012.78 1012.86 1012.82 1012.70 1012.70 1012.94 1011.86 1011.66 1011.74 1011.90 1012.18 1012.34 1012.50 1012.46 1012.50 1012.78 1013.10
1017.90 1017.78 1017.66 1017.46 1017.34 1017.18 1016.98 1016.62 1016.18 1015.66 1015.06 1014.50 1013.78 1013.34 1013.22 1013.10 1013.14 1013.06 1013.06 1012.98 1013.10 1012.98 1012.82 1012.86 1012.78 1012.50 1012.50 1012.58 1012.50 1012.46 1012.10 1012.02 1011.62 1011.70 1011.90 1011.86 1012.06 1012.26 1012.38 1012.42 1012.74 1013.14
1018.06 1017.94 1017.82 1017.58 1017.46 1017.30 1017.22 1016.98 1016.58 1016.06 1015.50 1014.98 1014.14 1013.54 1013.26 1013.10 1013.10 1013.06 1013.02 1012.90 1012.70 1012.70 1012.78 1012.90 1012.74 1012.54 1012.66 1012.62 1012.34 1012.26 1012.34 1012.18 1011.70 1011.42 1011.38 1011.58 1011.70 1011.98 1012.26 1012.30 1012.46 1012.98
1018.18 1018.06 1017.90 1017.74 1017.58 1017.42 1017.30 1017.10 1016.86 1016.38 1015.90 1015.34 1014.70 1013.98 1013.62 1013.46 1013.34 1013.02 1012.86 1012.66 1012.54 1012.42 1012.34 1012.46 1012.38 1012.30 1012.50 1012.66 1012.54 1012.50 1012.54 1012.18 1011.34 1011.46 1011.14 1011.26 1011.46 1011.58 1011.70 1011.98 1012.22 1012.38
1018.26 1018.14 1017.94 1017.78 1017.70 1017.58 1017.34 1017.18 1017.06 1016.82 1016.34 1015.82 1015.26 1014.82 1014.22 1013.86 1013.62 1013.22 1012.70 1012.50 1012.30 1012.10 1012.10 1012.14 1012.14 1012.22 1012.42 1012.58 1012.78 1012.58 1012.46 1012.22 1011.78 1011.42 1011.30 1011.18 1011.18 1011.26 1011.38 1011.62 1011.94 1012.14
1018.38 1018.30 1018.10 1017.90 1017.86 1017.70 1017.54 1017.38 1017.18 1017.10 1016.90 1016.38 1015.90 1015.46 1015.10 1014.86 1014.46 1013.74 1012.94 1012.54 1012.46 1012.30 1012.26 1012.22 1012.42 1012.54 1012.66 1012.82 1012.66 1012.66 1012.70 1012.46 1012.02 1011.90 1011.10 1010.90 1011.02 1011.10 1011.18 1011.30 1011.66 1011.94
1018.54 1018.38 1018.06 1018.02 1017.98 1017.90 1017.66 1017.54 1017.46 1017.42 1017.26 1016.94 1016.58 1016.26 1015.86 1015.50 1015.10 1014.70 1013.94 1013.10 1012.70 1012.66 1012.50 1012.54 1012.70 1012.86 1012.94 1013.18 1013.02 1012.78 1012.70 1012.42 1012.06 1011.10 1010.82 1010.90 1010.98 1010.98 1011.26 1011.50 1011.62 1011.70
1018.90 1018.70 1018.42 1018.34 1018.22 1018.02 1017.94 1017.78 1017.66 1017.58 1017.50 1017.42 1017.14 1016.86 1016.50 1016.14 1015.74 1015.42 1015.06 1014.46 1013.82 1013.10 1012.82 1012.74 1013.38 1013.82 1014.10 1013.82 1013.54 1013.38 1012.98 1012.70 1012.30 1011.54 1011.22 1010.70 1010.74 1010.82 1010.94 1011.02 1011.02 1010.90
1019.42 1019.14 1018.86 1018.66 1018.50 1018.38 1018.26 1018.18 1017.94 1017.78 1017.86 1017.86 1017.62 1017.38 1017.06 1016.74 1016.50 1016.14 1015.90 1015.58 1014.90 1014.14 1013.62 1014.14 1014.78 1015.22 1014.86 1014.62 1014.34 1014.22 1013.74 1012.74 1012.34 1012.06 1011.58 1011.14 1010.70 1010.70 1010.82 1010.78 1010.70 1010.66
1019.94 1019.70 1019.42 1019.18 1018.90 1018.66 1018.58 1018.42 1018.30 1018.22 1018.10 1018.06 1017.98 1017.78 1017.50 1017.26 1017.14 1016.90 1016.62 1016.38 1015.94 1015.46 1014.90 1015.18 1015.62 1015.82 1015.50 1015.22 1014.98 1014.78 1014.74 1013.94 1013.02 1012.46 1012.06 1011.10 1010.94 1010.82 1010.62 1010.58 1010.62 1010.66
1020.54 1020.34 1020.10 1019.86 1019.54 1019.22 1018.94 1018.82 1018.70 1018.58 1018.42 1018.22 1018.18 1018.26 1018.14 1017.86 1017.62 1017.38 1017.22 1016.98 1016.82 1016.42 1015.94 1015.58 1016.26 1016.50 1016.22 1015.90 1015.58 1015.02 1014.62 1014.38 1013.30 1012.54 1011.98 1011.86 1011.34 1011.10 1010.74 1010.42 1010.46 1010.62
1020.78 1020.70 1020.54 1020.34 1020.10 1019.82 1019.50 1019.26 1019.14 1019.02 1018.86 1018.62 1018.38 1018.30 1018.50 1018.50 1018.14 1017.98 1017.74 1017.58 1017.42 1017.22 1016.90 1016.30 1016.42 1016.70 1016.58 1016.26 1015.98 1015.62 1014.98 1014.42 1013.54 1012.66 1012.06 1011.70 1011.66 1011.50 1011.02 1010.66 1010.42 1010.46
1020.90 1020.86 1020.90 1020.74 1020.50 1020.26 1019.94 1019.70 1019.54 1019.34 1019.14 1018.94 1018.58 1018.46 1018.50 1018.58 1018.70 1018.54 1018.38 1018.22 1017.98 1017.82 1017.54 1017.18 1017.22 1017.46 1017.06 1016.70 1016.26 1015.78 1015.22 1014.42 1013.34 1012.70 1012.10 1011.58 1011.38 1011.46 1011.54 1011.14 1010.62 1010.54
1021.02 1021.06 1021.14 1020.94 1020.86 1020.74 1020.46 1020.22 1019.98 1019.66 1019.46 1019.22 1018.90 1018.66 1018.54 1018.54 1018.54 1018.70 1018.90 1018.74 1018.50 1018.34 1018.14 1017.94 1017.66 1017.70 1017.58 1017.14 1016.58 1015.94 1015.30 1014.06 1012.94 1012.50 1011.98 1011.50 1011.22 1011.26 1011.46 1011.54 1011.30 1011.06
1021.42 1021.26 1021.14 1021.06 1021.10 1021.02 1020.90 1020.70 1020.34 1019.98 1019.74 1019.50 1019.22 1018.98 1018.74 1018.66 1018.58 1018.50 1018.74 1019.02 1018.98 1018.78 1018.74 1018.54 1018.14 1017.98 1017.94 1017.54 1017.02 1016.38 1015.66 1014.46 1013.42 1012.54 1011.94 1011.50 1011.38 1011.34 1011.54 1011.98 1011.98 1011.54
1021.90 1021.74 1021.54 1021.14 1020.94 1021.22 1021.18 1020.98 1020.74 1020.50 1020.26 1019.94 1019.66 1019.38 1019.18 1018.94 1018.74 1018.58 1018.66 1018.90 1019.22 1019.26 1019.26 1019.06 1018.82 1018.42 1018.30 1017.86 1017.34 1016.78 1016.26 1015.22 1013.90 1013.06 1012.30 1011.82 1011.26 1011.02 1011.30 1011.90 1012.78 1012.58
1022.46 1022.26 1021.90 1021.42 1021.06 1020.98 1020.90 1020.86 1020.82 1020.78 1020.54 1020.30 1020.06 1019.82 1019.70 1019.38 1019.18 1018.90 1018.86 1018.90 1019.06 1019.26 1019.30 1019.42 1019.22 1018.86 1018.70 1018.26 1017.66 1017.06 1016.46 1015.62 1014.62 1013.74 1013.10 1012.54 1011.90 1011.62 1011.38 1011.94 1012.18 1012.70
1022.66 1022.54 1022.30 1021.94 1021.54 1021.30 1020.94 1020.74 1020.58 1020.54 1020.50 1020.30 1020.22 1020.14 1020.06 1019.94 1019.82 1019.46 1019.30 1019.10 1019.06 1019.10 1019.18 1019.38 1019.46 1019.18 1018.98 1018.66 1018.10 1017.46 1016.78 1015.90 1014.86 1014.46 1014.02 1013.70 1012.98 1012.38 1011.86 1012.22 1012.58 1012.86
Thickness
5643 5645 5646 5648 5650 5652 5652 5652 5652 5653 5654 5655 5655 5654 5653 5653 5653 5652 5654 5654 5653 5653 5653 5652 5651 5651 5651 5651 5651 5650 5650 5650 5649 5650 5648 5645 5643 5641 5638 5639 5639 5637
5638 5639 5640 5642 5646 5648 5650 5651 5651 5652 5652 5653 5652 5652 5653 5651 5649 5649 5649 5649 5647 5646 5647 5646 5645 5647 5648 5649 5649 5648 5648 5649 5649 5650 5649 5646 5644 5643 5640 5639 5638 5637
5632 5634 5635 5637 5639 5642 5645 5647 5648 5650 5651 5651 5651 5650 5650 5648 5644 5644 5645 5644 5640 5639 5640 5642 5643 5645 5645 5646 5647 5646 5647 5647 5648 5649 5648 5645 5644 5642 5641 5639 5636 5637
5628 5630 5632 5633 5634 5636 5638 5642 5644 5647 5649 5649 5649 5648 5647 5644 5639 5637 5640 5641 5637 5634 5636 5639 5642 5643 5643 5644 5644 5644 5645 5647 5648 5649 5646 5644 5642 5640 5640 5639 5637 5637
5624 5626 5628 5629 5630 5631 5633 5635 5639 5642 5646 5647 5646 5646 5644 5641 5636 5632 5633 5635 5635 5633 5633 5634 5637 5639 5640 5641 5641 5640 5641 5644 5646 5646 5645 5644 5643 5641 5640 5639 5638 5636
5620 5622 5624 5625 5626 5627 5628 5632 5636 5638 5642 5644 5643 5642 5641 5638 5634 5631 5629 5629 5630 5629 5629 5628 5630 5633 5635 5637 5637 5635 5637 5642 5644 5645 5644 5643 5642 5641 5641 5640 5639 5637
5617 5618 5620 5621 5621 5623 5624 5627 5630 5634 5637 5640 5640 5639 5637 5634 5630 5629 5626 5622 5622 5623 5625 5626 5627 5629 5630 5632 5633 5631 5632 5638 5642 5643 5643 5642 5641 5641 5641 5641 5640 5640
5613 5614 5616 5616 5616 5617 5619 5621 5624 5627 5631 5634 5635 5634 5632 5629 5626 5625 5622 5618 5617 5617 5619 5622 5624 5626 5626 5627 5630 5628 5629 5635 5639 5641 5642 5642 5640 5640 5640 5641 5641 5641
5610 5611 5611 5612 5613 5613 5613 5615 5618 5622 5625 5628 5630 5630 5628 5625 5622 5622 5619 5617 5615 5614 5614 5617 5620 5622 5623 5624 5626 5626 5629 5635 5639 5640 5640 5640 5640 5639 5640 5641 5640 5639
5607 5608 5607 5607 5608 5608 5608 5610 5612 5616 5619 5622 5625 5626 5625 5622 5619 5617 5616 5614 5613 5613 5613 5614 5616 5619 5620 5621 5625 5627 5629 5634 5637 5638 5638 5640 5640 5639 5638 5639 5638 5635
5603 5603 5603 5603 5603 5603 5604 5605 5606 5610 5612 5615 5619 5621 5621 5618 5616 5614 5612 5612 5611 5612 5611 5611 5613 5616 5616 5617 5622 5626 5625 5629 5634 5637 5638 5639 5639 5638 5637 5638 5637 5634
5598 5598 5598 5599 5599 5599 5600 5600 5601 5603 5605 5608 5611 5614 5615 5613 5611 5611 5610 5609 5610 5612 5611 5611 5612 5614 5613 5614 5617 5619 5620 5626 5632 5635 5636 5638 5638 5638 5638 5637 5636 5634
5594 5593 5594 5594 5594 5594 5595 5595 5596 5596 5598 5601 5602 5604 5607 5605 5605 5606 5607 5608 5608 5609 5611 5611 5611 5611 5611 5611 5611 5612 5614 5621 5627 5629 5631 5635 5636 5637 5638 5637 5636 5635
5589 5588 5589 5589 5588 5589 5589 5589 5590 5589 5589 5592 5593 5595 5597 5596 5596 5597 5601 5604 5604 5605 5607 5607 5606 5605 5606 5607 5607 5608 5611 5616 5622 5626 5630 5633 5633 5634 5636 5635 5635 5634
5583 5583 5584 5584 5583 5583 5583 5584 5584 5583 5583 5584 5584 5585 5587 5588 5589 5588 5591 5594 5597 5599 5601 5601 5599 5598 5598 5599 5601 5604 5607 5610 5617 5625 5629 5630 5631 5632 5633 5633 5633 5634
5576 5577 5578 5577 5577 5577 5577 5577 5578 5577 5577 5576 5576 5577 5578 5580 5580 5580 5580 5583 5586 5591 5593 5593 5590 5587 5587 5589 5592 5596 5601 5606 5610 5617 5623 5627 5629 5630 5630 5632 5634 5635
5568 5569 5570 5570 5571 5571 5570 5570 5571 5571 5570 5569 5568 5569 5570 5571 5571 5571 5571 5572 5575 5581 5584 5582 5579 5576 5578 5582 5585 5588 5594 5602 5607 5611 5617 5624 5627 5628 5629 5632 5634 5635
5558 5560 5561 5562 5564 5564 5564 5563 5563 5564 5563 5562 5562 5562 5563 5563 5563 5563 5563 5563 5565 5569 5573 5573 5569 5569 5573 5576 5579 5581 5584 5592 5600 5605 5611 5617 5623 5625 5627 5630 5632 5633
5549 5550 5551 5553 5554 5556 5556 5556 5556 5556 5556 5556 5556 5555 5555 5555 5556 5556 5557 5557 5557 5559 5564 5567 5563 5563 5567 5570 5573 5577 5579 5585 5593 5600 5605 5611 5615 5619 5624 5627 5629 5629
5542 5542 5542 5544 5545 5547 5548 5549 5549 5548 5549 5549 5550 5549 5549 5548 5548 5549 5550 5550 5551 5551 5554 5559 5558 5558 5562 5565 5567 5572 5575 5581 5589 5596 5602 5607 5609 5612 5617 5622 5625 5626
5535 5534 5534 5535 5536 5538 5540 5541 5542 5542 5542 5542 5544 5544 5543 5543 5542 5542 5542 5543 5544 5544 5545 5549 5550 5551 5554 5558 5562 5566 5571 5578 5586 5593 5598 5604 5607 5607 5609 5613 5618 5620
5528 5527 5527 5527 5528 5529 5530 5532 5534 5535 5536 5536 5537 5538 5538 5538 5538 5537 5536 5536 5537 5538 5538 5539 5542 5543 5545 5550 5556 5561 5566 5575 5583 5589 5595 5601 5604 5603 5603 5604 5608 5611
5519 5520 5520 5520 5521 5520 5521 5523 5525 5527 5529 5529 5530 5531 5531 5532 5533 5533 5531 5530 5530 5531 5531 5532 5535 5537 5538 5542 5548 5554 5560 5568 5577 5584 5591 5596 5599 5600 5599 5595 5595 5600
5509 5510 5512 5513 5514 5513 5513 5515 5516 5517 5519 5521 5522 5524 5524 5525 5526 5527 5526 5525 5523 5523 5524 5525 5527 5529 5531 5535 5541 5547 5552 5560 5568 5575 5583 5589 5594 5597 5596 5590 5587 5590
5500 5500 5502 5506 5507 5507 5507 5508 5509 5509 5510 5512 5514 5515 5515 5517 5518 5519 5520 5519 5518 5518 5517 5518 5519 5522 5525 5528 5533 5539 5545 5552 5560 5566 5571 5578 5584 5589 5590 5586 5584 5584
5492 5492 5494 5496 5498 5500 5501 5502 5502 5503 5503 5504 5506 5506 5506 5507 5508 5510 5511 5512 5512 5512 5513 5512 5512 5515 5518 5521 5525 5531 5536 5543 5551 5556 5559 5564 5570 5575 5578 5578 5578 5577